[[{"header":{"parameterUnit":"m.s-1","parameterCategory":1,"la1":30.2991,"la2":30.254,"lo1":-89.0895,"lo2":-89.0444,"dy":0.0017,"dx":0.0017,"nx":28,"ny":28,"refTime":"2024-05-23T03:00:00:Z","depth":0,"parameterNumber":2,"parameterNumberName":"U-component_of_WINDS"},"data":[0,0,0,0,0,0,0,0,0,0,0,0,0,0,0,0,0,0,0,0,0,0,0,0,0,0,0,0,0,0,0,0,0,0,0,0,0,0,0,0,0,0,0,0,0,0,0,0,0,0,0,0,0,0,0,0,0,0,-3.5176,-3.5176,0,-3.5192,-3.5192,-3.5192,-3.5132,-3.513,-3.5128,-3.5127,-3.5141,-3.5143,-3.5145,0,0,0,0,0,0,0,0,0,0,0,0,0,-3.5093,-3.5094,-3.5176,-3.5176,-3.5177,-3.5192,-3.5192,-3.5192,-3.5132,-3.513,-3.5128,-3.5126,-3.514,-3.5143,-3.5145,0,0,0,0,0,0,0,0,0,0,0,0,0,-3.5121,-3.5095,-3.5176,-3.5148,-3.5146,-3.5192,-3.5192,-3.5192,-3.5133,-3.513,-3.5127,-3.5125,-3.5139,-3.5142,-3.5145,-3.5218,0,0,-3.5155,-3.5156,0,0,0,0,0,0,0,0,-3.5119,-3.5124,-3.5152,-3.515,-3.5148,-3.5157,-3.5168,-3.5201,-3.5133,-3.5138,-3.5127,-3.5123,-3.5148,-3.515,-3.5159,-3.5218,-3.5219,-3.5155,-3.5157,-3.5158,-3.5159,0,0,0,0,0,0,0,-3.5117,-3.5123,-3.5182,-3.5153,-3.515,-3.5135,-3.5136,-3.5174,-3.5158,-3.5137,-3.5133,-3.5136,-3.5147,-3.5156,-3.5159,-3.5219,-3.5155,-3.5158,-3.516,-3.5161,-3.5338,-3.5341,0,0,0,0,0,0,-3.5119,-3.5121,-3.5182,-3.5183,-3.5127,-3.5138,-3.514,-3.5157,-3.5157,-3.5155,-3.5138,-3.5133,-3.5153,-3.5156,-3.5159,-3.5243,-3.5158,-3.5161,-3.5163,-3.5335,-3.5339,-3.5342,0,0,0,0,0,0,-3.5118,-3.5125,-3.5181,-3.5151,-3.5157,-3.5143,-3.5163,-3.5159,-3.5168,-3.5158,-3.5154,-3.5151,-3.5151,-3.5155,-3.5204,-3.5243,-3.5162,-3.5165,-3.5332,-3.5336,-3.534,-3.5412,0,0,0,0,0,0,-3.5115,-3.5125,-3.5153,-3.5152,-3.5159,-3.5226,-3.5165,-3.5161,-3.5174,-3.5167,-3.5169,-3.5167,-3.5149,-3.5199,-3.5207,-3.5245,-3.5168,-3.5328,-3.5334,-3.5339,-3.5406,-3.5418,-3.5429,0,0,0,0,0,-3.5113,-3.5172,-3.5154,-3.5162,-3.5193,-3.5228,-3.5232,-3.521,-3.5177,-3.5205,-3.5198,-3.5167,-3.5238,-3.5205,-3.5213,-3.5253,-3.5326,-3.5332,-3.5339,-3.5401,-3.5416,-3.5428,0,0,0,0,0,0,-3.5176,-3.5171,-3.5152,-3.5213,-3.5221,-3.5218,-3.5251,-3.5227,-3.5245,-3.5238,-3.521,-3.5211,-3.5264,-3.5264,-3.5227,-3.5323,-3.5276,-3.5284,-3.5321,-3.5335,-3.5346,-3.5344,-3.517,0,0,0,0,0,-3.5198,-3.5227,-3.5221,-3.5275,-3.5281,-3.5266,-3.528,-3.5263,-3.5271,-3.5274,-3.5271,-3.5279,-3.5303,-3.5319,-3.5341,-3.5407,-3.5405,-3.5438,-3.545,-3.5459,-3.5466,-3.5499,-3.5513,-3.5363,-3.5363,-3.5363,0,0,-3.5241,-3.5242,-3.5262,-3.5288,-3.5293,-3.5323,-3.5269,-3.5304,-3.5325,-3.5279,-3.5324,-3.5323,-3.533,-3.5387,-3.5412,-3.5388,-3.5507,-3.5467,-3.5475,-3.5476,-3.5507,-3.5522,-3.5534,-3.5367,-3.5367,-3.5366,0,0,-3.5336,-3.5341,-3.5386,-3.5392,-3.54,-3.539,-3.5402,-3.5402,-3.5399,-3.5445,-3.541,-3.5436,-3.5479,-3.5485,-3.5494,-3.5593,-3.5564,-3.5601,-3.5659,-3.5692,-3.5704,-3.5714,-3.5748,-3.576,-3.5608,-3.5608,-3.5608,0,-3.5389,-3.5434,-3.5412,-3.5449,-3.5461,-3.5422,-3.5466,-3.5474,-3.5488,-3.5497,-3.5471,-3.5523,-3.5525,-3.5583,-3.5607,-3.5617,-3.5627,-3.5599,-3.5704,-3.5714,-3.5723,-3.5755,-3.5768,-3.5612,-3.5612,-3.5612,-3.5611,0,-3.5498,-3.553,-3.5565,-3.5581,-3.5597,-3.5638,-3.5622,-3.5641,-3.5623,-3.5616,-3.5662,-3.5664,-3.5685,-3.5698,-3.5681,-3.5754,-3.5738,-3.5709,-3.5661,-3.5742,-3.5772,-3.5784,-3.5619,-3.5617,-3.5616,-3.5615,0,0,-3.5631,-3.5636,-3.5649,-3.5655,-3.5662,-3.5686,-3.5725,-3.5746,-3.5763,-3.5775,-3.5806,-3.5844,-3.5816,-3.5826,-3.581,-3.5839,-3.5916,-3.5806,-3.5805,-3.5824,-3.5994,-3.6015,-3.603,-3.5898,-3.5901,-3.5902,-3.5993,0,-3.5723,-3.579,-3.5772,-3.5838,-3.5867,-3.5831,-3.5865,-3.5873,-3.5867,-3.589,-3.5884,-3.591,-3.5873,-3.5879,-3.5907,-3.5901,-3.5949,-3.5894,-3.5925,-3.5927,-3.5922,-3.6045,-3.6067,-3.6153,-3.6005,-3.6007,-3.6008,0,-3.5838,-3.5855,-3.5925,-3.5927,-3.5938,-3.5969,-3.5987,-3.601,-3.6018,-3.6012,-3.6025,-3.6002,-3.604,-3.5994,-3.6045,-3.6008,-3.6021,-3.602,-3.6023,-3.6022,-3.5971,-3.6047,-3.618,-3.6192,-3.6026,-3.6025,-3.6023,0,-3.5926,-3.5967,-3.6013,-3.602,-3.6025,-3.6047,-3.605,-3.6055,-3.6069,-3.6085,-3.6094,-3.6114,-3.6125,-3.6141,-3.6124,-3.6092,-3.6178,-3.613,-3.6172,-3.6173,-3.619,-3.6188,-3.6324,-3.6202,-3.6202,-3.6201,-3.6201,0,-3.6029,-3.6072,-3.6053,-3.6081,-3.6129,-3.6108,-3.6156,-3.6154,-3.616,-3.6187,-3.6158,-3.6184,-3.6161,-3.6185,-3.6173,-3.6217,-3.6222,-3.6218,-3.6213,-3.6219,-3.6219,-3.6224,-3.6217,-3.6205,-3.6204,-3.6203,-3.6203,0,-3.6134,-3.6123,-3.6171,-3.6172,-3.6173,-3.6208,-3.6208,-3.6234,-3.6227,-3.6262,-3.6269,-3.6258,-3.6285,-3.6271,-3.6298,-3.629,-3.6346,-3.6335,-3.6343,-3.6339,-3.6381,-3.6377,-3.6523,-3.6541,-3.6409,-3.6411,-3.6412,0,-3.6199,-3.6232,-3.6236,-3.6253,-3.6257,-3.6284,-3.6299,-3.628,-3.6296,-3.6308,-3.6332,-3.6357,-3.6375,-3.642,-3.6414,-3.6435,-3.6422,-3.6472,-3.6425,-3.6429,-3.6421,-3.6418,-3.642,-3.6481,-3.6483,-3.6484,-3.6485,0,-3.6315,-3.6308,-3.633,-3.6351,-3.6369,-3.6384,-3.6396,-3.6412,-3.6393,-3.6413,-3.644,-3.6454,-3.6483,-3.6507,-3.6525,-3.6527,-3.6503,-3.65,-3.6511,-3.6515,-3.6518,-3.6515,-3.6367,-3.6496,-3.6495,-3.6494,-3.6494,-3.6493,-3.6401,-3.6428,-3.6435,-3.6461,-3.6469,-3.6481,-3.6505,-3.6502,-3.6525,-3.6547,-3.6535,-3.6566,-3.6574,-3.6596,-3.6601,-3.6625,-3.6605,-3.6621,-3.6624,-3.6628,-3.6633,-3.6517,-3.6629,-3.6629,-3.6628,-3.6628,-3.6628,0,-3.6514,-3.6517,-3.6541,-3.656,-3.658,-3.6557,-3.657,-3.6587,-3.6616,-3.6625,-3.6644,-3.6675,-3.6699,-3.6696,-3.6717,-3.6737,-3.6726,-3.6743,-3.674,-3.6741,-3.665,-3.6638,-3.6751,-3.6751,-3.6751,-3.6751,-3.6751,-3.6751,-3.6575,-3.6619,-3.6614,-3.6661,-3.6664,-3.6695,-3.6704,-3.6716,-3.6723,-3.6759,-3.6779,-3.6777,-3.6781,-3.6803,-3.6823,-3.6821,-3.683,-3.685,-3.6845,-3.676,-3.6747,-3.6735,-3.6724,-3.6853,-3.6853,-3.6932,-3.6933,-3.6934]},{"header":{"parameterUnit":"m.s-1","parameterCategory":1,"la1":30.2991,"la2":30.254,"lo1":-89.0895,"lo2":-89.0444,"dy":0.0017,"dx":0.0017,"nx":28,"ny":28,"refTime":"2024-05-23T03:00:00:Z","depth":0,"parameterNumber":3,"parameterNumberName":"V-component_of_WINDS"},"data":[0,0,0,0,0,0,0,0,0,0,0,0,0,0,0,0,0,0,0,0,0,0,0,0,0,0,0,0,0,0,0,0,0,0,0,0,0,0,0,0,0,0,0,0,0,0,0,0,0,0,0,0,0,0,0,0,0,0,3.3792,3.3792,0,3.3803,3.3803,3.3803,3.3774,3.3773,3.3772,3.3771,3.3782,3.3783,3.3784,0,0,0,0,0,0,0,0,0,0,0,0,0,3.3743,3.3744,3.3792,3.3792,3.3792,3.3803,3.3803,3.3803,3.3774,3.3773,3.3772,3.3771,3.3781,3.3782,3.3784,0,0,0,0,0,0,0,0,0,0,0,0,0,3.376,3.3744,3.3792,3.3778,3.3777,3.3803,3.3803,3.3803,3.3774,3.3773,3.3771,3.377,3.3781,3.3782,3.3784,3.3822,0,0,3.3789,3.379,0,0,0,0,0,0,0,0,3.3759,3.3762,3.378,3.3779,3.3778,3.3786,3.379,3.381,3.3774,3.3775,3.3771,3.3769,3.3784,3.3785,3.379,3.3823,3.3823,3.3789,3.379,3.3791,3.3792,0,0,0,0,0,0,0,3.3758,3.3761,3.3796,3.3781,3.3779,3.3772,3.3773,3.3793,3.3787,3.3775,3.3773,3.3775,3.3783,3.3789,3.379,3.3823,3.3789,3.3791,3.3792,3.3793,3.3887,3.3888,0,0,0,0,0,0,3.3758,3.376,3.3796,3.3796,3.3765,3.3774,3.3775,3.3785,3.3787,3.3786,3.3776,3.3773,3.3787,3.3788,3.3791,3.3834,3.3791,3.3793,3.3794,3.3885,3.3887,3.3889,0,0,0,0,0,0,3.3758,3.3762,3.3795,3.3778,3.3781,3.3776,3.3787,3.3786,3.3791,3.3788,3.3786,3.3783,3.3786,3.3788,3.3815,3.3834,3.3794,3.3795,3.3884,3.3886,3.3888,3.3923,0,0,0,0,0,0,3.3756,3.3762,3.3777,3.3778,3.3782,3.3819,3.3789,3.3787,3.3794,3.3791,3.3794,3.3793,3.3785,3.3812,3.3816,3.3836,3.3796,3.3882,3.3885,3.3887,3.392,3.3926,3.3932,0,0,0,0,0,3.3755,3.3786,3.3777,3.3782,3.3801,3.3821,3.3823,3.3813,3.3796,3.3811,3.3808,3.3793,3.3832,3.3815,3.3819,3.384,3.388,3.3884,3.3887,3.3918,3.3925,3.3932,0,0,0,0,0,0,3.3786,3.3786,3.3776,3.3809,3.3815,3.3816,3.3833,3.3821,3.3832,3.3828,3.3815,3.3816,3.3845,3.3845,3.3826,3.3877,3.3853,3.3858,3.3875,3.3882,3.3888,3.3886,3.3798,0,0,0,0,0,3.3797,3.3813,3.3812,3.3841,3.3845,3.3839,3.3847,3.3839,3.3844,3.3847,3.3846,3.3851,3.3865,3.3874,3.3886,3.3921,3.392,3.3937,3.3943,3.3948,3.3951,3.3968,3.3975,3.39,3.39,3.39,0,0,3.3819,3.3821,3.3832,3.3848,3.3851,3.3868,3.3841,3.386,3.3872,3.3849,3.3874,3.3874,3.3879,3.3909,3.3923,3.3911,3.3972,3.3952,3.3956,3.3957,3.3973,3.398,3.3986,3.3902,3.3902,3.3901,0,0,3.3868,3.3872,3.3896,3.39,3.3906,3.3902,3.3908,3.391,3.3909,3.3934,3.3917,3.3931,3.3955,3.3959,3.3964,3.4015,3.4001,3.402,3.4049,3.4066,3.4072,3.4077,3.4094,3.41,3.4023,3.4024,3.4024,0,3.3895,3.392,3.391,3.393,3.3937,3.3918,3.3942,3.3946,3.3956,3.3961,3.3948,3.3977,3.3979,3.4009,3.4022,3.4027,3.4033,3.4018,3.4072,3.4077,3.4082,3.4097,3.4104,3.4026,3.4025,3.4025,3.4025,0,3.3951,3.3969,3.3988,3.3998,3.4007,3.4029,3.4022,3.4032,3.4024,3.4021,3.4046,3.4048,3.406,3.4067,3.4059,3.4096,3.4089,3.4074,3.405,3.4091,3.4105,3.4112,3.4029,3.4028,3.4027,3.4027,0,0,3.4019,3.4024,3.4031,3.4034,3.404,3.4053,3.4074,3.4086,3.4094,3.4102,3.4118,3.4139,3.4126,3.4132,3.4124,3.4139,3.4178,3.4123,3.4122,3.4131,3.4217,3.4227,3.4234,3.4169,3.417,3.4171,3.4216,0,3.4066,3.4102,3.4094,3.4129,3.4144,3.4127,3.4145,3.415,3.4148,3.4161,3.4158,3.4173,3.4155,3.4158,3.4172,3.417,3.4195,3.4167,3.4183,3.4184,3.418,3.4242,3.4252,3.4295,3.4222,3.4223,3.4224,0,3.4125,3.4135,3.4172,3.4174,3.418,3.4197,3.4207,3.4219,3.4225,3.4222,3.4229,3.4218,3.4238,3.4216,3.4242,3.4224,3.423,3.423,3.4231,3.4231,3.4205,3.4242,3.4308,3.4314,3.4233,3.4232,3.4232,0,3.4169,3.4191,3.4216,3.422,3.4224,3.4236,3.4238,3.4242,3.4249,3.4258,3.4263,3.4274,3.428,3.4289,3.4281,3.4266,3.4309,3.4286,3.4306,3.4306,3.4315,3.4314,3.4381,3.4322,3.4322,3.4322,3.4322,0,3.4221,3.4244,3.4235,3.425,3.4275,3.4266,3.429,3.4291,3.4294,3.4308,3.4295,3.4308,3.4298,3.4311,3.4306,3.4328,3.4331,3.4329,3.4327,3.4329,3.4329,3.4331,3.4328,3.4323,3.4323,3.4323,3.4322,0,3.4273,3.4269,3.4294,3.4296,3.4297,3.4315,3.4316,3.433,3.4327,3.4345,3.4349,3.4345,3.4359,3.4353,3.4368,3.4364,3.4392,3.4387,3.439,3.4388,3.4408,3.4406,3.4478,3.4487,3.4424,3.4424,3.4425,0,3.4306,3.4323,3.4326,3.4335,3.4338,3.4352,3.436,3.4352,3.436,3.4368,3.438,3.4393,3.4403,3.4426,3.4424,3.4435,3.4429,3.4454,3.4431,3.4432,3.4428,3.4426,3.4427,3.4458,3.4459,3.4459,3.446,0,3.4363,3.436,3.4372,3.4384,3.4393,3.4402,3.4409,3.4416,3.4409,3.4419,3.4433,3.4441,3.4456,3.4469,3.4479,3.448,3.4468,3.4468,3.4473,3.4474,3.4474,3.4473,3.4401,3.4465,3.4465,3.4464,3.4464,3.4464,3.4406,3.442,3.4424,3.4438,3.4442,3.4449,3.4462,3.4461,3.4473,3.4485,3.4479,3.4496,3.45,3.4512,3.4516,3.4528,3.4518,3.4526,3.4527,3.4529,3.4531,3.4474,3.453,3.453,3.453,3.4529,3.4529,0,3.4461,3.4464,3.4476,3.4487,3.4497,3.4486,3.4494,3.4503,3.4517,3.4523,3.4533,3.4549,3.4561,3.4561,3.4572,3.4582,3.4576,3.4585,3.4583,3.4583,3.454,3.4533,3.4588,3.4588,3.4588,3.4588,3.4588,3.4588,3.4491,3.4514,3.4512,3.4536,3.4538,3.4554,3.4559,3.4565,3.4569,3.4588,3.4598,3.4598,3.4601,3.4612,3.4622,3.4622,3.4626,3.4636,3.4633,3.4592,3.4586,3.4581,3.4574,3.4637,3.4637,3.4675,3.4675,3.4676]}]]